Location: ????????
(60.4333°N, 46.4710°E)
Time: 19:30:14
(UTC+00:00)

Cosmos 1125 Rocket - Pass Details

Date: 25 November 2020
Orbit: 757 x 780 km, 74.0° (Epoch: 16 January)

Event Time Altitude Azimuth Distance (km) Brightness Sun altitude
Rises 13:04:17 0° 326° (NW) 3,230 6.8 -6.9°
Reaches altitude 10° 13:06:41 10° 328° (NNW) 2,301 6.0 -7.2°
Maximum altitude 13:11:54 74° 54° (NE) 797 3.5 -7.8°
Drops below altitude 10° 13:17:06 10° 140° (SE) 2,293 5.9 -8.3°
Sets 13:19:28 0° 142° (SE) 3,218 6.6 -8.6°
